This is the latest recevied weather packets stored in our database for station/object LZ1ASO-10. If no packets are shown the sender has not sent any weather packets the latest 1 day(s).
| Time | Temp. | Humidity | Pressure | Rain* | Wind** | Luminosity | Snow |
|---|---|---|---|---|---|---|---|
| 1777925561 | 16.11° C | 34% | 1016.5 hPa | - | - | - | - |
| 1777924661 | 16.11° C | 34% | 1016.4 hPa | - | - | - | - |
| 1777923761 | 16.67° C | 34% | 1016.5 hPa | - | - | - | - |
| 1777922861 | 16.67° C | 34% | 1016.5 hPa | - | - | - | - |
| 1777921960 | 16.67° C | 34% | 1016.6 hPa | - | - | - | - |
| 1777921060 | 16.67° C | 34% | 1016.4 hPa | - | - | - | - |
| 1777920160 | 17.22° C | 33% | 1016.3 hPa | - | - | - | - |
| 1777919260 | 17.22° C | 33% | 1016.4 hPa | - | - | - | - |
| 1777918360 | 17.22° C | 32% | 1016.2 hPa | - | - | - | - |
| 1777917460 | 17.78° C | 32% | 1016.1 hPa | - | - | - | - |
| 1777916559 | 17.78° C | 32% | 1016.1 hPa | - | - | - | - |
| 1777915659 | 18.33° C | 31% | 1016 hPa | - | - | - | - |
| 1777914758 | 18.89° C | 31% | 1016 hPa | - | - | - | - |
| 1777913858 | 18.89° C | 29% | 1016 hPa | - | - | - | - |
| 1777912958 | 19.44° C | 29% | 1016 hPa | - | - | - | - |
| 1777912058 | 19.44° C | 28% | 1016 hPa | - | - | - | - |
| 1777911158 | 20° C | 28% | 1015.9 hPa | - | - | - | - |
| 1777910258 | 20° C | 28% | 1015.9 hPa | - | - | - | - |
| 1777909358 | 20° C | 29% | 1015.9 hPa | - | - | - | - |
| 1777908458 | 19.44° C | 29% | 1015.9 hPa | - | - | - | - |
| 1777907557 | 19.44° C | 29% | 1015.9 hPa | - | - | - | - |
| 1777906657 | 19.44° C | 29% | 1015.9 hPa | - | - | - | - |
| 1777905757 | 19.44° C | 29% | 1015.8 hPa | - | - | - | - |
| 1777904857 | 19.44° C | 28% | 1015.7 hPa | - | - | - | - |
| 1777903957 | 20° C | 28% | 1015.7 hPa | - | - | - | - |
* Rain since midnight (hover to see other rain measurements)
** Current wind speed in m/s (hover to see current wind gust speed)